COSMOS 2307 (GLONASS)

Satellite information

Favourite Embed

Satellite Type and Status

PAYLOADIN ORBIT

Key statistics

Satellite COSMOS 2307 (GLONASS) at a glance.

Uptime

11240

Days in orbit

Revolutions

≈ 2.1

Per day

Orbit

MEO

Medium Earth Orbit

Inclination

64.1

Latest

Satellite identification and parameters

Extended collection of information and parameters for COSMOS 2307 (GLONASS).

Object identification

Identified? True

Debris? False

Object name: COSMOS 2307 (GLONASS)

International designator: 1995-009A

Object number (NORAD): 23511

Object ID (CCSDS): 23511

Country: COMMONWEALTH OF INDEPENDENT STATES (CIS)

Current information (Y/N): Y

RCS size: LARGE

Orbital parameters

Period: 675.723 minutes

Inclination: 64.1441 deg

SMA: 25507.772 km

Apoapsis: 19142.377 km

Periapsis: 19116.896 km

RAAN: 307.9066 deg

Eccentricy: 0.00049947

Argument of periapsis: 140.8644 deg

Mean anomaly: 217.3216 deg

Mean motion: 2.13105164 rev/day

Mean motion (dot): -0.00000054 rev/day2

B* drag term: 0.0 1/REarth

Two-line elements (TLE)

Creation date: Dec. 11, 2025, 10:54 a.m.

Reference frame: TEME

Reference center: EARTH

Epoch: Dec. 11, 2025, 2:46 a.m. UTC

TLE line 0: 0 COSMOS 2307 (GLONASS)

TLE line 1: 1 23511U 95009A 25345.11572387 -.00000054 00000-0 00000-0 0 9998

TLE line 2: 2 23511 64.1441 307.9066 0004995 140.8644 217.3216 2.13105164239187

Live tracking on map

Real-time ground track for satellite COSMOS 2307 (GLONASS).

In-orbit conjunctions

There are no conjunctions computed for COSMOS 2307 (GLONASS), at the moment. Check back to stay up to date, as we update our databases every day.

Go to all conjunctions

Associated space launch

GLONASS navigation satellites

COSMOS 2307 (GLONASS) was lifted into orbit during the mission ‘Proton | Uragan 63 to 65’, on board a Proton space rocket.

The launch took place on March 7, 1995, 9:23 a.m. from 200/39 (200L).

For more information about the launch, click the button.

Launch to space Proton | Uragan 63 to 65
Proton | Uragan 63 to 65

Agency: N/A

Status: Launch Successful

Launch date: March 7, 1995, 9:23 a.m. UTC

Rocket: Proton

Launch pad: 200/39 (200L)

Location: Baikonur Cosmodrome, Republic of Kazakhstan

...

Latest news about this satellite

There are no fresh news available about this satellite. Check back as we update our databases every day.


Newsletter sign-up

Weekly statistics, charts and insights to help you stay on top of the space industry.